User: anonymous   Login
Location: Waning Moon II Observatory
(30.3730°N, 89.7620°W)
Time: 21:08:38
(UTC-05:00)
Language:

Meteor 1-21 - Orbit

View from above orbital plane
View from above orbital plane
View from above satellite
View from above satellite

Ground track
Ground track

The orbit data is extracted from the following two-line orbital elements,

1  7714U 75023A   17081.94975066 -.00000032 +00000-0 -26032-4 0  9993
2  7714 081.2091 275.6362 0031108 138.5157 221.8382 14.07961629472808
Epoch (UTC): 22 March 2017 22:47:38
Eccentricity: 0.0031108
inclination: 81.2091°
perigee height: 844 km
apogee height: 889 km
right ascension of ascending node: 275.6362°
argument of perigee: 138.5157°
revolutions per day: 14.07961629
mean anomaly at epoch: 221.8382°
orbit number at epoch: 47280

The dashed part of the orbit path shows where the satellite is in the earth's shadow,  

DLR